Regional Weather Roundup
Issued by NWS

Home | Current Version | Previous Version | Graphics & Text | Print | Product List | Glossary On
Versions: 1 2 3 4 5 6 7 8 9 10 11 12 13 14 15 16 17 18 19 20 21 22 23 24 25 26 27 28 29 30 31 32 33 34 35 36 37 38 39 40 41 42 43 44 45 46 47 48 49 50
000
ASUS43 KLOT 140608
RWRIL

ILLINOIS REGIONAL WEATHER ROUNDUP
NATIONAL WEATHER SERVICE CHICAGO/ROMEOVILLE IL
1200 AM CST SUN FEB 14 2016

NOTE: "FAIR" INDICATES FEW OR NO CLOUDS BELOW 12,000 FEET WITH NO
SIGNIFICANT WEATHER AND/OR OBSTRUCTIONS TO VISIBILITY.

* THESE STATIONS ARE NOT UNDER NWS QUALITY CONTROL. THEY ALSO MAY NOT
  REPORT WEATHER SUCH AS PRECIPITATION OR FOG.

ILZ001-002-007-009-015-016-024-140700-
NORTHWEST ILLINOIS

CITY           SKY/WX    TMP DP  RH WIND       PRES   REMARKS
MOLINE         CLOUDY    18   0  45 SE7       30.41F WCI   9
6HR MIN TEMP:  17; 6HR MAX TEMP:  18;

STERLING*      CLOUDY    16   0  48 E9        30.40S WCI   4
SAVANNA*       CLOUDY    14   1  55 E7        30.42F WCI   4
$$

ILZ003-004-008-010-011-017-018-140700-
NORTH CENTRAL ILLINOIS

CITY           SKY/WX    TMP DP  RH WIND       PRES   REMARKS
ROCKFORD       CLOUDY    11  -2  56 E7        30.45F WCI   0
6HR MIN TEMP:   8; 6HR MAX TEMP:  12;

FREEPORT*      CLOUDY    10   3  72 E3        30.44S
ROCHELLE*      CLOUDY    12   2  65 E5        30.44S WCI   4
DE KALB*       PTCLDY    11   2  67 E6        30.43S WCI   1
$$

ILZ005-006-012>014-019>023-140700-
NORTHEAST ILLINOIS

CITY           SKY/WX    TMP DP  RH WIND       PRES   REMARKS
CHICAGO-OHARE  MOCLDY    11  -3  53 NE6       30.45F WCI   1
6HR MIN TEMP:  10; 6HR MAX TEMP:  13;

CHICAGO-MIDWAY CLOUDY    14  -1  51 SE6       30.46F WCI   5
6HR MIN TEMP:  13; 6HR MAX TEMP:  16;

AURORA         CLOUDY    12   2  64 NE5       30.45F WCI   4
6HR MIN TEMP:  10; 6HR MAX TEMP:  14;

LANSING*       PTCLDY    11   2  66 SE6       30.47F WCI   2
WAUKEGAN       PTCLDY     2  -2  83 CALM      30.45F
6HR MIN TEMP:   2; 6HR MAX TEMP:  10;

DUPAGE AIRPORT CLOUDY    10  -2  58 E7        30.43F WCI  -1
6HR MIN TEMP:   6; 6HR MAX TEMP:  12;

WHEELING       CLOUDY     9  -3  58 NE3       30.47F
6HR MIN TEMP:   9; 6HR MAX TEMP:  12;

MORRIS*        MOCLDY    13   3  63 E3        30.43F
NORTHERLY ISL    N/A     13  -2  51 S3          N/A
$$

LMZ740>746-140700-
SOUTHERN LAKE MICHIGAN

STATION/POSITION SKY/WX   TEMP    WIND        PRES    VSBY  WAVE
                          AIR SEA DIR/SP/G                  HT/PER
                          (F)     (DEG/KT/KT) (MB)    (MI)  (FT/S)
HARRISON CRIB              17     200/  8/  9   N/A
BURNHAM HARBOR             13     170/  1/  5   N/A
CALUMET HARBOR             13     170/  6/ 10 1031.4F
BURNS HARBOR               11     180/  6/  8 1032.5F
MICHIGAN CITY              10     140/  7/  9   N/A
$$

ILZ025>027-034>036-040-047-049-050-058-095>099-140700-
WEST-CENTRAL ILLINOIS

CITY           SKY/WX    TMP DP  RH WIND       PRES   REMARKS
QUINCY         CLOUDY    17  10  74 SE13      30.37F WCI   4
GALESBURG*     CLOUDY    18   2  51 SE9       30.40S WCI   6
MACOMB*        LGT SNOW  16  13  88 SE10      30.43F WCI   4
JACKSONVILLE*  CLOUDY    21  12  68 E6        30.42R WCI  13
PITTSFIELD*    CLOUDY    20  10  64 E6        30.40F WCI  12
$$

ILZ028>032-037-038-041>044-048-051>054-059>061-140700-
CENTRAL ILLINOIS

CITY           SKY/WX    TMP DP  RH WIND       PRES   REMARKS
PONTIAC        CLOUDY    17   5  58 E7        30.45S WCI   8
BLOOMINGTON    CLOUDY    17   5  59 SE8       30.42F WCI   7
DECATUR        CLOUDY    19   4  51 SE8       30.42F WCI   9
PEORIA         CLOUDY    19   0  43 SE7       30.43S WCI  10
6HR MIN TEMP:  18; 6HR MAX TEMP:  19;

LACON*         CLOUDY    18  -1  43 SE8       30.43S WCI   7
LINCOLN*       CLOUDY    19   6  55 SE8       30.43S WCI   9
SPRINGFIELD    CLOUDY    20   6  55 SE9       30.42F WCI   9
6HR MIN TEMP:  20; 6HR MAX TEMP:  20;

TAYLORVILLE    CLOUDY    19   5  53 E8        30.42F WCI   9
$$

ILZ033-039-045-046-055>057-062-063-140700-
EAST-CENTRAL ILLINOIS

CITY           SKY/WX    TMP DP  RH WIND       PRES   REMARKS
CHAMPAIGN      CLOUDY    17   3  54 SE9       30.43F WCI   6
RANTOUL*       CLOUDY    19   5  54 SE8       30.43S WCI   9
MATTOON        CLOUDY    17   3  54 SE5       30.43F WCI  10
$$

ILZ079-100>102-140700-
SOUTHWEST ILLINOIS

CITY           SKY/WX    TMP DP  RH WIND       PRES   REMARKS
ALTON          CLOUDY    22   6  51 E9        30.40F WCI  11
BELLEVILLE     CLOUDY    23   7  50 SE10      30.39F WCI  12
CAHOKIA*       CLOUDY    24   7  48 E8        30.41F WCI  15
SPARTA*        CLOUDY    22   7  51 SE9       30.41F WCI  12
$$

ILZ064>066-069>071-074>076-080>082-084>086-088>090-092>094-140700-
SOUTH-CENTRAL ILLINOIS

CITY           SKY/WX    TMP DP  RH WIND       PRES   REMARKS
CARBONDALE     CLOUDY    23   6  48 SE9       30.41F WCI  13
6HR MIN TEMP:  22; 6HR MAX TEMP:  24;

CAIRO*         CLOUDY    26  12  55 E8        30.40F WCI  17
EFFINGHAM*     CLOUDY    20   8  59 E6        30.46S WCI  12
MARION         CLOUDY    25   7  46 E6        30.42F WCI  18
MT. VERNON     CLOUDY    21   3  45 E7        30.44S WCI  13
CENTRALIA*     CLOUDY    22   8  52 E7        30.42F WCI  14
SALEM*         CLOUDY    23   5  46 E6        30.43F WCI  15
METROPOLIS*    CLOUDY    24  12  58 E7        30.42F WCI  16
$$

ILZ067-068-072-073-078-083-087-091-140700-
SOUTHEAST ILLINOIS

CITY           SKY/WX    TMP DP  RH WIND       PRES   REMARKS
LAWRENCEVILLE  CLOUDY    20   3  48 E8        30.47F WCI  10
FLORA*         CLOUDY    22   5  47 E5        30.45F WCI  16
FAIRFIELD*     CLOUDY    22   6  51 E8        30.44F WCI  12
HARRISBURG*    CLOUDY    24   9  53 E8        30.44F WCI  15
ROBINSON*      CLOUDY    19   3  51 SE7       30.47F WCI   9
CARMI*         CLOUDY    23   9  55 E8        30.46S WCI  14
$$

ABBREVIATIONS USED IN REMARKS
   TC - TEMPERATURE IN CELSIUS
  WCI - WIND CHILL INDEX
   HX - HEAT INDEX
  VSB - VISIBILITY
$$




USA.gov is the U.S. government's official web portal to all federal, state and local government web resources and services.